Weather History for New York, NY

Change the Weather History Date:

Saturday, February 9, 2013

  Actual Average Record
Temperature  
Mean Temperature 29 °F 34 °F  
Max Temperature 34 °F 41 °F 62 °F (1990)
Min Temperature 23 °F 28 °F 7 °F (1979)
Degree Days  
Heating Degree Days 36 31  
Month to date heating degree days 319 281  
Since 1 July heating degree days 2668 2880  
Cooling Degree Days 0 0  
Month to date cooling degree days 0 0  
Year to date cooling degree days 0 0  
Moisture  
Dew Point 17 °F    
Average Humidity 64    
Maximum Humidity 92    
Minimum Humidity 35    
Precipitation  
Precipitation 0.80 in 0.09 in 1.82 in (1969)
Month to date precipitation 1.53 0.86  
Year to date precipitation 4.17 4.03  
Snow  
Snow 5.70 in 0.30 in 15.70 in (1969)
Month to date snowfall 13.1 2.9  
Since 1 July snowfall 16.1 15.8  
Snow Depth 10.00 in    
Sea Level Pressure  
Sea Level Pressure 29.98 in    
Wind  
Wind Speed 18 mph (NW)    
Max Wind Speed 30 mph    
Max Gust Speed 38 mph    
Visibility 7 miles    
Events Fog , Snow    
T = Trace of Precipitation, MM = Missing Value Source: NWS Daily Summary

Daily Weather History Graph

Daily Weather History Graph

Search for Another Location

Airport:

Trip Planner

Search our weather history database for the weather conditions in past years. The results will help you decide how hot, cold, wet, or windy it might be!

Date:

Astronomy

Feb. 09, 2013 Rise Set
Actual Time 6:56 AM EST 5:23 PM EST
Civil Twilight 6:28 AM EST 5:51 PM EST
Nautical Twilight 5:56 AM EST 6:24 PM EST
Astronomical Twilight 5:24 AM EST 6:55 PM EST
Moon 6:06 AM EST (2/9) 5:03 PM EST (2/9)
Length of Visible Light 11h 23m
Length of Day
10h 26m
Waning Crescent, 0% of the Moon is Illuminated
Feb 9
Waning Crescent
Feb 10
New
Feb 17
First Quarter
Feb 25
Full
Mar 4
Last Quarter

Hourly Weather History & Observations

Time (EST) Temp. Windchill Dew Point Humidity Pressure Visibility Wind Dir Wind Speed Gust Speed Precip Events Conditions
12:51 AM 27.0 °F 14.3 °F 25.0 °F 92% 29.76 in 0.5 mi NNW 17.3 mph 23.0 mph 0.06 in Fog , Snow Snow
1:47 AM 28.4 °F 17.0 °F 24.8 °F 86% 29.77 in 0.5 mi North 15.0 mph 20.7 mph 0.06 in Fog , Snow Snow
1:51 AM 28.0 °F 17.5 °F 25.0 °F 88% 29.78 in 0.5 mi North 12.7 mph - 0.06 in Fog , Snow Snow
2:51 AM 28.0 °F 17.0 °F 26.1 °F 92% 29.78 in 0.5 mi NNW 13.8 mph - 0.07 in Fog , Snow Snow
3:35 AM 28.4 °F 16.6 °F 24.8 °F 86% 29.79 in 1.2 mi NNW 16.1 mph - 0.04 in Snow Light Snow
3:48 AM 28.4 °F 17.5 °F 24.8 °F 86% 29.79 in 2.0 mi NNW 13.8 mph - 0.04 in Snow Light Snow
3:51 AM 28.0 °F 17.5 °F 24.1 °F 85% 29.79 in 1.8 mi NNW 12.7 mph - 0.04 in Snow Light Snow
4:24 AM 28.4 °F 16.2 °F 23.0 °F 80% 29.81 in 7.0 mi NNW 17.3 mph - 0.00 in Snow Light Snow
4:41 AM 28.4 °F 17.5 °F 24.8 °F 86% 29.81 in 2.0 mi NNW 13.8 mph - 0.00 in Snow Light Snow
4:51 AM 28.0 °F 17.0 °F 24.1 °F 85% 29.82 in 2.0 mi NNW 13.8 mph - 0.00 in Snow Light Snow
5:10 AM 28.4 °F 15.8 °F 24.8 °F 86% 29.81 in 5.0 mi NW 18.4 mph 27.6 mph 0.00 in Snow Light Snow
5:51 AM 30.0 °F 18.3 °F 23.0 °F 75% 29.82 in 10.0 mi NW 17.3 mph 25.3 mph 0.00 in   Overcast
6:51 AM 30.0 °F 17.5 °F 21.9 °F 72% 29.85 in 10.0 mi NW 19.6 mph 29.9 mph 0.00 in   Overcast
7:51 AM 30.0 °F 17.2 °F 21.9 °F 72% 29.88 in 10.0 mi NW 20.7 mph 24.2 mph N/A   Mostly Cloudy
8:51 AM 28.9 °F 14.0 °F 19.0 °F 67% 29.92 in 10.0 mi NW 27.6 mph 36.8 mph N/A   Mostly Cloudy
9:51 AM 28.0 °F 14.3 °F 17.1 °F 63% 29.96 in 10.0 mi NW 21.9 mph 32.2 mph N/A   Mostly Cloudy
10:51 AM 28.0 °F 15.3 °F 17.1 °F 63% 29.99 in 10.0 mi NW 18.4 mph 28.8 mph N/A   Mostly Cloudy
11:51 AM 30.0 °F 17.9 °F 17.1 °F 59% 30.00 in 10.0 mi NW 18.4 mph 26.5 mph N/A   Mostly Cloudy
12:51 PM 32.0 °F 20.5 °F 15.1 °F 50% 30.01 in 10.0 mi NNW 18.4 mph 29.9 mph N/A   Scattered Clouds
1:51 PM 32.0 °F 18.9 °F 14.0 °F 48% 30.04 in 10.0 mi NW 24.2 mph 31.1 mph N/A   Scattered Clouds
2:51 PM 34.0 °F 22.4 °F 12.0 °F 40% 30.05 in 10.0 mi NW 20.7 mph 28.8 mph N/A   Scattered Clouds
3:51 PM 33.1 °F 21.2 °F 9.0 °F 37% 30.08 in 10.0 mi NW 20.7 mph 26.5 mph N/A   Partly Cloudy
4:51 PM 32.0 °F 21.2 °F 10.0 °F 40% 30.11 in 10.0 mi NW 16.1 mph 28.8 mph N/A   Clear
5:51 PM 30.9 °F 18.4 °F 6.1 °F 35% 30.16 in 10.0 mi NNW 20.7 mph - N/A   Clear
6:51 PM 28.9 °F 16.5 °F 5.0 °F 36% 30.19 in 10.0 mi NNW 18.4 mph 28.8 mph N/A   Clear
7:51 PM 28.4 °F 16.6 °F 8.6 °F 43% 30.22 in 10.0 mi NNW 16.1 mph - N/A   Clear
8:51 PM 27.0 °F 13.9 °F 7.0 °F 43% 30.27 in 10.0 mi NW 18.4 mph - N/A   Clear
9:51 PM 26.1 °F 12.7 °F 6.1 °F 43% 30.30 in 10.0 mi NW 18.4 mph 26.5 mph N/A   Clear
10:51 PM 25.0 °F 12.6 °F 6.1 °F 45% 30.31 in 10.0 mi NNW 15.0 mph - N/A   Clear
11:51 PM 24.1 °F 10.1 °F 7.0 °F 48% 30.34 in 10.0 mi NW 18.4 mph - N/A   Clear